This demonstration page uses our WeatherBlox Daily Observations layout. Learn more.

Left ArrowRight Arrow

38.20091, -84.87328

Hourly Observations for August 26, 2016

Temp ( °F °C ) Dew Point ( °F °C ) Humidity (%) Winds ( mph kmh ) Pressure ( in mb ) Visibility ( mi km ) Precip ( " mm )
12:53 am 00:53 Clear 74 23.3 69 20.6 85 85 Calm 30.07 1018 10 16 0.00 0.00
1:53 am 01:53 Clear 72 22.2 68 20 87 87 Calm 30.08 1019 10 16 0.00 0.00
2:53 am 02:53 Clear 72 22.2 68 20 87 87 Calm 30.08 1019 10 16 0.00 0.00
3:53 am 03:53 Clear 71 21.7 67 19.4 87 87 Calm 30.08 1019 10 16 0.00 0.00
4:53 am 04:53 Clear 70 21.1 67 19.4 90 90 Calm 30.08 1019 9 14 0.00 0.00
5:53 am 05:53 Clear 69 20.6 66 18.9 90 90 Calm 30.09 1019 8 13 0.00 0.00
6:53 am 06:53 Clear with Mist and Fog 70 21.1 67 19.4 90 90 Calm 30.10 1019 6 10 0.00 0.00
7:53 am 07:53 Sunny 72 22.2 68 20 87 87 Calm 30.10 1019 9 14 0.00 0.00
8:53 am 08:53 Sunny 77 25 71 21.7 82 82 Calm 30.12 1020 9 14 0.00 0.00
9:53 am 09:53 Sunny 82 27.8 72 22.2 72 72 Calm 30.13 1020 10 16 0.00 0.00
10:53 am 10:53 Sunny 86 30 70 21.1 59 59 Calm 30.13 1020 10 16 0.00 0.00
11:53 am 11:53 Sunny 88 31.1 69 20.6 54 54 NNW 3 6 30.13 1020 10 16 0.00 0.00
12:53 pm 12:53 Sunny 89 31.7 69 20.6 52 52 E 6 9 30.11 1020 10 16 0.00 0.00
1:53 pm 13:53 Mostly Sunny 91 32.8 68 20 47 47 Calm 30.10 1019 10 16 0.00 0.00
2:53 pm 14:53 Mostly Cloudy 92 33.3 68 20 46 46 ENE 3 6 30.08 1019 10 16 0.00 0.00
3:53 pm 15:53 Sunny 91 32.8 67 19.4 45 45 SSE 7 11 30.05 1018 10 16 0.00 0.00
4:53 pm 16:53 Sunny 92 33.3 68 20 46 46 S 3 6 30.04 1017 10 16 0.00 0.00
5:53 pm 17:53 Sunny 93 33.9 68 20 44 44 Calm 30.04 1017 10 16 0.00 0.00
6:53 pm 18:53 Mostly Sunny 92 33.3 67 19.4 44 44 Calm 30.03 1017 10 16 0.00 0.00
7:53 pm 19:53 Sunny 85 29.4 72 22.2 65 65 Calm 30.05 1018 10 16 0.00 0.00
8:53 pm 20:53 Partly Cloudy 81 27.2 72 22.2 74 74 Calm 30.07 1018 10 16 0.00 0.00
9:53 pm 21:53 Clear 79 26.1 71 21.7 77 77 Calm 30.08 1019 10 16 0.00 0.00
10:53 pm 22:53 Clear 77 25 71 21.7 82 82 Calm 30.07 1018 10 16 0.00 0.00
11:53 pm 23:53 Clear 77 25 71 21.7 82 82 Calm 30.07 1018 10 16 0.00 0.00

Powered by AerisWeather